#timestamp,LO_Frequency,Hit,StdDev 
1570917615.1,286047002.7,N
1570917635.9,286047004.3,Y
1570917655.7,286047000.4,P
1570917675.6,286046999.7,N
1570917695.4,286047002.7,P
1570917715.2,286046999.8,N
1570917735.1,286047000.0,N
1570917736.0,286047000.0,N
1570917755.8,286046998.2,N
1570917775.6,286047000.4,N
1570917795.5,286047000.9,N
1570917815.3,286047000.7,N
1570917835.2,286047000.2,N
1570917855.9,286047001.2,N
1570917875.7,286047000.5,N
1570917895.6,286047000.6,N
1570917915.4,286047002.3,N
1570917935.2,286046999.7,N
1570917955.1,286047002.5,N
1570917956.0,286047002.5,N
1570917975.8,286047001.5,N
1570917995.7,286047002.8,N
1570918015.5,286047000.7,N
1570918035.3,286047000.7,N
1570918055.2,286046998.8,N
1570918075.0,286046999.4,N
1570918075.9,286046999.4,N
1570918095.7,286046998.4,N
1570918115.6,286047000.6,N
1570918135.4,286047000.4,N
1570918155.3,286046999.8,N
1570918175.1,286047001.0,N
1570918195.8,286046999.8,N
1570918215.7,286046998.6,N
1570918235.5,286047000.9,N
1570918255.3,286047001.1,N
1570918275.2,286046998.3,N
1570918295.0,286046998.4,N
1570918295.9,286046998.4,N
1570918315.8,286046998.2,N
1570918335.6,286047000.8,N
1570918355.4,286047001.0,N
1570918375.3,286046999.8,N
1570918395.1,286047002.5,N
1570918415.9,286047000.2,N
1570918435.7,286047000.9,N
1570918455.5,286047000.7,N
1570918475.4,286047000.6,N
1570918495.2,286046998.6,N
1570918515.0,286046998.2,N
1570918515.9,286046998.2,N
1570918535.8,286046998.1,N
1570918555.6,286046999.2,N
1570918575.5,286046999.4,N
1570918595.3,286046998.2,N
1570918615.1,286046999.5,N
1570918635.9,286046999.0,N
1570918655.7,286046998.9,N
1570918675.5,286046998.1,N
1570918695.4,286046999.0,N
1570918715.2,286046999.4,N
1570918735.1,286046998.7,N
1570918736.0,286046998.7,N
1570918755.8,286046997.2,N
1570918775.6,286046997.1,N
1570918795.5,286046997.2,N
1570918815.3,286046999.6,N
1570918835.2,286046997.1,N
1570918855.9,286046997.8,N
1570918875.7,286046996.8,N
1570918895.6,286046995.0,Y
1570918915.4,286046999.1,P
1570918935.2,286046999.5,P
1570918955.1,286046998.9,P
1570918956.0,286046998.9,Y
1570918975.8,286047000.7,P
1570918995.7,286047000.4,N
1570919015.5,286046998.5,N
1570919035.3,286046999.0,N
1570919055.2,286046999.3,N
1570919075.0,286046999.2,N
1570919075.9,286046999.2,N
1570919095.8,286046997.0,Y
1570919115.6,286046997.2,P
1570919135.4,286046997.2,N
1570919155.3,286046996.6,P
1570919175.1,286046997.0,N
1570919195.8,286046997.3,N
1570919215.7,286046997.6,N
1570919235.5,286046997.9,N
1570919255.4,286046997.5,Y
1570919275.2,286046998.8,P
1570919295.0,286046998.8,N
1570919295.9,286046998.8,N
1570919315.8,286046998.8,N
1570919335.6,286046999.5,N
1570919355.5,286046994.9,Y
1570919375.3,286046996.6,P
1570919395.1,286046996.7,P
1570919415.9,286046999.4,N
1570919435.7,286046996.9,N
1570919455.5,286046998.9,N
1570919475.4,286046999.9,N
1570919495.2,286046998.2,N
1570919515.1,286046999.3,N
1570919516.0,286046999.3,N
1570919535.8,286046999.2,N
1570919555.6,286046997.7,N
1570919575.5,286046995.1,Y
1570919595.3,286046996.7,P
1570919615.2,286046999.2,N
1570919635.9,286046998.5,N
1570919655.7,286046996.9,Y
1570919675.6,286046999.9,P
1570919695.4,286047000.1,N
1570919715.2,286047000.6,N
1570919735.1,286047000.1,N
1570919736.0,286047000.1,N
1570919755.8,286047002.2,N
1570919775.7,286046999.9,N
1570919795.5,286047000.1,N
1570919815.3,286047002.7,N
1570919835.2,286047002.1,N
1570919855.0,286046999.7,N
1570919855.9,286046999.7,N
1570919875.8,286047002.7,N
1570919895.6,286047000.4,N
1570919915.4,286047000.3,N
1570919935.3,286047000.5,N
1570919955.1,286047001.2,N
1570919975.8,286047001.9,N
1570919995.7,286047002.2,N
1570920015.5,286047002.7,N
1570920035.4,286047001.8,N
1570920055.2,286047002.4,N
1570920075.0,286047002.0,N
1570920075.9,286047002.0,N
1570920095.8,286047002.6,N
1570920115.6,286047004.3,Y
1570920135.5,286046998.1,P
1570920155.3,286046998.1,N
1570920175.1,286046999.1,N
1570920195.9,286047001.0,N
1570920215.7,286046998.5,N
1570920235.5,286047001.2,N
1570920255.4,286047002.3,N
1570920275.2,286047001.0,N
1570920295.1,286047000.8,N
1570920296.0,286047000.8,N
1570920315.8,286047002.2,N
1570920335.6,286047001.9,N
1570920355.5,286047002.1,N
1570920375.3,286047002.2,N
1570920395.1,286047002.0,N
1570920415.9,286047002.3,N
1570920435.7,286047001.5,N
1570920455.6,286047002.2,N
1570920475.4,286047002.5,N
1570920495.2,286047001.0,N
1570920515.1,286047000.0,N
1570920516.0,286047000.0,N
1570920535.8,286046998.2,N
1570920555.7,286046998.6,N
1570920575.5,286046996.6,N
1570920595.3,286046996.9,N
1570920615.2,286046999.1,N
1570920635.9,286046998.1,N
1570920655.7,286046998.2,N
1570920675.6,286046998.4,N
1570920695.4,286046999.1,N
1570920715.3,286046998.5,N
1570920735.1,286046999.1,N
1570920736.0,286046999.1,N
1570920755.8,286046998.6,N
1570920775.7,286046998.4,N
1570920795.5,286046998.2,N
1570920815.3,286046998.5,N
1570920835.2,286046998.9,N
1570920855.0,286046998.8,N
1570920855.9,286046998.8,N
1570920875.8,286046996.9,N
1570920895.6,286046999.3,N
1570920915.4,286046999.6,N
1570920935.3,286046998.8,N
1570920955.1,286046999.2,N
1570920975.9,286046999.5,N
1570920995.7,286046999.0,N
1570921015.5,286046996.9,N
1570921035.4,286046999.5,N
1570921055.2,286046999.3,N
1570921075.0,286046999.1,N
1570921075.9,286046999.1,N
1570921095.8,286046998.4,N
1570921115.6,286046999.4,N
1570921135.5,286046999.6,N
1570921155.3,286046998.0,Y
1570921175.1,286046998.8,P
1570921195.9,286046998.9,P
